Location: Les Coudrans
(46.1056°N, 1.1158°W)
Time: 14:48:31
(UTC+00:00)

YAOGAN 1 - Pass Details

Date: 03 March 2021
Orbit: 618 x 620 km, 97.9° (Epoch: 19 April)

Event Time Altitude Azimuth Distance (km) Brightness Sun altitude
Rises 19:13:42 0° 182° (S) 2,883 6.0 -14.6°
Reaches altitude 10° 19:15:58 10° 189° (S) 1,982 5.2 -15.0°
Maximum altitude 19:20:04 43° 261° (W) 882 3.9 -15.7°
Drops below altitude 10° 19:24:13 10° 334° (NNW) 1,998 5.6 -16.4°
Sets 19:26:31 0° 341° (NNW) 2,910 6.4 -16.8°
